Location: Charbonni�res
(45.9952°N, 2.9982°E)
Time: 17:51:04
(UTC+00:00)

Cosmos 990 Rocket - Pass Details

Date: 29 November 2020
Orbit: 747 x 768 km, 74.0° (Epoch: 18 January)

Event Time Altitude Azimuth Distance (km) Brightness Sun altitude
Rises 05:27:34 0° 213° (SSW) 3,216 7.0 -16.8°
Reaches altitude 10° 05:29:59 10° 218° (SW) 2,297 6.2 -16.4°
Maximum altitude 05:35:05 54° 296° (WNW) 929 4.1 -15.5°
Drops below altitude 10° 05:40:15 10° 14° (NNE) 2,319 6.5 -14.7°
Sets 05:42:42 0° 19° (NNE) 3,250 7.3 -14.3°
